Regional Weather Roundup
Issued by NWS

Home | Current Version | Previous Version | Graphics & Text | Print | Product List | Glossary On
Versions: 1 2 3 4 5 6 7 8 9 10 11 12 13 14 15 16 17 18 19 20 21 22 23 24 25 26 27 28 29 30 31 32 33 34 35 36 37 38 39 40 41 42 43 44 45 46 47 48 49 50
000
ASUS45 KBOI 231510
RWRID

IDAHO REGIONAL WEATHER ROUNDUP
NATIONAL WEATHER SERVICE BOISE ID
800 AM MST MON JAN 23 2017

NOTE: "FAIR" INDICATES FEW OR NO CLOUDS BELOW 12000 FEET
WITH NO SIGNIFICANT WEATHER AND/OR OBSTRUCTIONS TO VISIBILITY

IDZ012-014-231600-
SOUTHWEST IDAHO


CITY           SKY/WX    TMP DP  RH WIND       PRES   REMARKS
BOISE          LGT SNOW  28  27  96 NW5       29.59R VSB 3/4 WCI  23
CALDWELL       LGT SNOW  28  28 100 W6        29.63R FOG     WCI  22
MOUNTAIN HOME  SNOW      30  30 100 N14       29.55S VSB 1/2 WCI  20
$$

IDZ016-017-231600-
SOUTHCENTRAL IDAHO


CITY           SKY/WX    TMP DP  RH WIND       PRES   REMARKS
BURLEY         LGT SNOW  32  30  92 E14       29.45F FOG     WCI  22
JEROME         LGT SNOW  31  29  92 NE25      29.47F FOG     WCI  17
TWIN FALLS     LGT SNOW  30  29  96 NE12      29.47S VSB 3/4 WCI  20
$$

IDZ019>023-231600-
SOUTHEAST IDAHO


CITY           SKY/WX    TMP DP  RH WIND       PRES   REMARKS
IDAHO FALLS    CLOUDY    28  25  88 NE9       29.54S WCI  19
POCATELLO      LGT SNOW  30  29  96 NE9       29.50F VSB 1   WCI  22
REXBURG        CLOUDY    28  23  81 NE9       29.54F WCI  19
$$

IDZ006-010-011-018-031-032-231600-
CENTRAL IDAHO MOUNTAINS


CITY           SKY/WX    TMP DP  RH WIND       PRES   REMARKS
MCCALL         CLOUDY    14  10  84 NE3       29.53R
HAILEY         CLOUDY    27  25  93 NW10      29.50F WCI  17
STANLEY          N/A     13  11  92 SE3       29.54F
SALMON         CLOUDY     9   7  92 CALM      29.67R VSB<1/4
CHALLIS        CLOUDY    16  15  96 CALM      29.59S
$$

IDZ002-004-006-007-026-231600-
NORTHERN IDAHO


CITY           SKY/WX    TMP DP  RH WIND       PRES   REMARKS
LEWISTON       CLOUDY    30  29  96 CALM      29.73R FOG
LOWELL           N/A     32  30  92 CALM      29.73R
COEUR D`ALENE  FOG       30  29  96 NE3       29.69R VSB 1/4
MULLAN PASS    FOG       23  21  92 CALM      29.56R VSB 1/4
$$



USA.gov is the U.S. government's official web portal to all federal, state and local government web resources and services.